• In Hungary
  • List of Countries
  • For 7 days
  • Water Temperature
  • Satellite Maps
  • Weather Map
  • News
  • Weather Widgets
  • user-avatar
    Login

    Hourly Weather Razgrad

    Today, 17 October, Tuesday

    Time Temperature Precipitation Wind Pressure Humidity
    00:00 +15°C° 0 mm 1 mps 750 mmHg 73%
    01:00 +15°C° 0 mm 1 mps 750 mmHg 73%
    02:00 +14°C° 0 mm 1 mps 750 mmHg 75%
    03:00 +14°C° 0 mm 1 mps 750 mmHg 75%
    04:00 +14°C° 0 mm 1 mps 750 mmHg 76%
    05:00 +14°C° 0 mm 1 mps 749 mmHg 76%
    06:00 +15°C° 0 mm 1 mps 749 mmHg 73%
    07:00 +15°C° 0 mm 1 mps 749 mmHg 70%
    08:00 +16°C° 0 mm 1 mps 749 mmHg 67%
    09:00 +20°C° 0 mm 1 mps 750 mmHg 58%
    10:00 +22°C° 0 mm 1 mps 750 mmHg 50%
    11:00 +24°C° 0 mm 1 mps 750 mmHg 41%
    12:00 +25°C° 0 mm 1 mps 749 mmHg 38%
    13:00 +26°C° 0 mm 1 mps 749 mmHg 36%
    14:00 +27°C° 0 mm 1 mps 749 mmHg 33%
    15:00 +25°C° 0 mm 1 mps 749 mmHg 37%
    16:00 +24°C° 0 mm 1 mps 748 mmHg 40%
    17:00 +23°C° 0 mm 1 mps 748 mmHg 44%
    18:00 +22°C° 0 mm 1 mps 748 mmHg 47%
    19:00 +20°C° 0 mm 1 mps 748 mmHg 50%
    20:00 +19°C° 0 mm 1 mps 748 mmHg 53%
    21:00 +19°C° 0 mm 1 mps 748 mmHg 54%
    22:00 +18°C° 0 mm 1 mps 748 mmHg 56%
    23:00 +18°C° 0 mm 1 mps 748 mmHg 57%

    Tomorrow, 18 October, Wednesday

    Time Temperature Precipitation Wind Pressure Humidity
    00:00 +18°C° 0 mm 1 mps 748 mmHg 58%
    01:00 +16°C° 0 mm 1 mps 748 mmHg 59%
    02:00 +16°C° 0 mm 1 mps 748 mmHg 60%
    03:00 +16°C° 0 mm 1 mps 747 mmHg 60%
    04:00 +15°C° 0 mm 1 mps 747 mmHg 61%
    05:00 +15°C° 0 mm 1 mps 747 mmHg 61%
    06:00 +16°C° 0 mm 1 mps 747 mmHg 60%
    07:00 +18°C° 0 mm 1 mps 747 mmHg 58%
    08:00 +18°C° 0 mm 1 mps 747 mmHg 57%
    09:00 +21°C° 0 mm 1 mps 747 mmHg 50%
    10:00 +23°C° 0 mm 1 mps 747 mmHg 43%
    11:00 +25°C° 0 mm 2 mps 747 mmHg 37%
    12:00 +26°C° 0 mm 2 mps 746 mmHg 34%
    13:00 +27°C° 0 mm 2 mps 746 mmHg 32%
    14:00 +27°C° 0 mm 2 mps 746 mmHg 30%
    15:00 +26°C° 0 mm 2 mps 745 mmHg 34%
    16:00 +25°C° 0 mm 2 mps 745 mmHg 38%
    17:00 +23°C° 0 mm 2 mps 744 mmHg 42%
    18:00 +21°C° 0 mm 2 mps 744 mmHg 45%
    19:00 +20°C° 0 mm 2 mps 744 mmHg 49%
    20:00 +18°C° 0 mm 2 mps 744 mmHg 52%
    21:00 +18°C° 0 mm 2 mps 744 mmHg 54%
    22:00 +17°C° 0 mm 2 mps 744 mmHg 56%
    23:00 +16°C° 0 mm 2 mps 744 mmHg 57%

    Day after tomorrow, 19 October, Thursday

    Time Temperature Precipitation Wind Pressure Humidity
    00:00 +16°C° 0 mm 2 mps 744 mmHg 58%
    01:00 +16°C° 0 mm 2 mps 744 mmHg 59%
    02:00 +15°C° 0 mm 2 mps 744 mmHg 59%
    03:00 +15°C° 0 mm 2 mps 743 mmHg 60%
    04:00 +15°C° 0 mm 1 mps 743 mmHg 60%
    05:00 +14°C° 0 mm 1 mps 743 mmHg 61%
    06:00 +15°C° 0 mm 1 mps 743 mmHg 59%
    07:00 +16°C° 0 mm 1 mps 743 mmHg 58%
    08:00 +16°C° 0 mm 1 mps 743 mmHg 56%
    09:00 +20°C° 0 mm 1 mps 743 mmHg 49%
    10:00 +22°C° 0 mm 1 mps 743 mmHg 42%
    11:00 +24°C° 0 mm 1 mps 743 mmHg 35%
    12:00 +25°C° 0 mm 1 mps 743 mmHg 32%
    13:00 +26°C° 0 mm 1 mps 743 mmHg 30%
    14:00 +27°C° 0 mm 1 mps 743 mmHg 28%
    15:00 +25°C° 0 mm 1 mps 742 mmHg 31%
    16:00 +24°C° 0 mm 1 mps 742 mmHg 35%
    17:00 +23°C° 0 mm 1 mps 742 mmHg 39%
    18:00 +21°C° 0 mm 1 mps 742 mmHg 41%
    19:00 +20°C° 0 mm 1 mps 742 mmHg 44%
    20:00 +19°C° 0 mm 1 mps 743 mmHg 46%
    21:00 +18°C° 0 mm 1 mps 743 mmHg 48%
    22:00 +18°C° 0 mm 1 mps 743 mmHg 50%
    23:00 +18°C° 0 mm 1 mps 743 mmHg 51%

    20 October, Friday

    Time Temperature Precipitation Wind Pressure Humidity
    00:00 +16°C° 0 mm 1 mps 743 mmHg 52%
    01:00 +16°C° 0 mm 1 mps 743 mmHg 53%
    02:00 +16°C° 0 mm 1 mps 743 mmHg 54%
    03:00 +15°C° 0 mm 1 mps 743 mmHg 54%
    04:00 +15°C° 0 mm 1 mps 742 mmHg 55%
    05:00 +15°C° 0 mm 1 mps 742 mmHg 55%
    06:00 +16°C° 0 mm 1 mps 743 mmHg 54%
    07:00 +16°C° 0 mm 1 mps 743 mmHg 54%
    08:00 +18°C° 0 mm 1 mps 743 mmHg 53%
    09:00 +20°C° 0 mm 1 mps 743 mmHg 48%
    10:00 +22°C° 0 mm 1 mps 743 mmHg 42%
    11:00 +24°C° 0 mm 2 mps 744 mmHg 37%
    12:00 +25°C° 0 mm 2 mps 743 mmHg 36%
    13:00 +26°C° 0 mm 2 mps 743 mmHg 34%
    14:00 +26°C° 0 mm 2 mps 743 mmHg 33%
    15:00 +25°C° 0 mm 2 mps 743 mmHg 37%
    16:00 +24°C° 0 mm 1 mps 743 mmHg 41%
    17:00 +23°C° 0 mm 1 mps 743 mmHg 45%
    18:00 +21°C° 0 mm 1 mps 743 mmHg 48%
    19:00 +20°C° 0 mm 1 mps 743 mmHg 50%
    20:00 +19°C° 0 mm 1 mps 743 mmHg 53%
    21:00 +19°C° 0 mm 1 mps 744 mmHg 54%
    22:00 +19°C° 0 mm 1 mps 744 mmHg 56%
    23:00 +18°C° 0 mm 1 mps 744 mmHg 57%

    21 October, Saturday

    Time Temperature Precipitation Wind Pressure Humidity
    00:00 +18°C° 0 mm 1 mps 744 mmHg 58%
    01:00 +16°C° 0 mm 1 mps 744 mmHg 59%
    02:00 +16°C° 0 mm 1 mps 744 mmHg 60%
    03:00 +16°C° 0 mm 1 mps 744 mmHg 61%
    04:00 +16°C° 0 mm 1 mps 744 mmHg 62%
    05:00 +15°C° 0 mm 1 mps 744 mmHg 63%
    06:00 +16°C° 0 mm 1 mps 744 mmHg 62%
    07:00 +16°C° 0 mm 1 mps 744 mmHg 61%
    08:00 +18°C° 0 mm 1 mps 744 mmHg 60%
    09:00 +20°C° 0 mm 1 mps 744 mmHg 54%
    10:00 +21°C° 0 mm 2 mps 744 mmHg 47%
    11:00 +24°C° 0 mm 2 mps 744 mmHg 40%
    12:00 +24°C° 0 mm 2 mps 744 mmHg 38%
    13:00 +25°C° 0 mm 3 mps 743 mmHg 36%
    14:00 +26°C° 0 mm 3 mps 743 mmHg 33%
    15:00 +24°C° 0 mm 3 mps 743 mmHg 37%
    16:00 +23°C° 0 mm 2 mps 743 mmHg 40%
    17:00 +21°C° 0 mm 2 mps 742 mmHg 44%
    18:00 +20°C° 0 mm 2 mps 742 mmHg 46%
    19:00 +19°C° 0 mm 2 mps 743 mmHg 48%
    20:00 +18°C° 0 mm 1 mps 743 mmHg 51%
    21:00 +17°C° 0 mm 2 mps 743 mmHg 52%
    22:00 +17°C° 0 mm 2 mps 742 mmHg 54%
    23:00 +16°C° 0 mm 2 mps 742 mmHg 55%

    22 October, Sunday

    Time Temperature Precipitation Wind Pressure Humidity
    00:00 +16°C° 0 mm 2 mps 742 mmHg 57%
    01:00 +15°C° 0 mm 2 mps 742 mmHg 59%
    02:00 +15°C° 0 mm 2 mps 742 mmHg 60%
    03:00 +15°C° 0 mm 2 mps 742 mmHg 61%
    04:00 +15°C° 0 mm 2 mps 742 mmHg 62%
    05:00 +14°C° 0 mm 2 mps 742 mmHg 62%
    06:00 +15°C° 0 mm 2 mps 742 mmHg 61%
    07:00 +15°C° 0 mm 1 mps 742 mmHg 59%
    08:00 +16°C° 0 mm 1 mps 742 mmHg 58%
    09:00 +18°C° 0 mm 2 mps 742 mmHg 51%
    10:00 +20°C° 0 mm 2 mps 742 mmHg 44%
    11:00 +22°C° 0 mm 3 mps 742 mmHg 37%
    12:00 +24°C° 0 mm 2 mps 742 mmHg 35%
    13:00 +24°C° 0 mm 2 mps 741 mmHg 33%
    14:00 +25°C° 0 mm 2 mps 741 mmHg 30%
    15:00 +24°C° 0 mm 2 mps 741 mmHg 34%
    16:00 +22°C° 0 mm 1 mps 740 mmHg 37%
    17:00 +21°C° 0 mm 1 mps 740 mmHg 41%
    18:00 +20°C° 0 mm 1 mps 740 mmHg 43%
    19:00 +19°C° 0 mm 1 mps 740 mmHg 45%
    20:00 +18°C° 0 mm 1 mps 740 mmHg 47%
    21:00 +18°C° 0 mm 1 mps 740 mmHg 48%
    22:00 +16°C° 0 mm 1 mps 740 mmHg 49%
    23:00 +16°C° 0 mm 1 mps 740 mmHg 50%
    Show more